DEBRISSAT-2

Last updated on June 1, 2020, 5:10 a.m. UTC

1 43680U 98067PR  20151.69072398  .11468650  12477-4  51439-3 0  9995
2 43680  51.6154 356.6377 0010832 273.4515  86.5274 16.42437352111263

Satellite is not in orbit.